Starlink 33747

operational
NORAD ID: 66208 Int'l Des: 2025-244 Owner: SPXS Country: US Constellation: starlink
LEOCIRCULAR

Starlink 33747について

説明を読み込み中...

リアルタイム位置

3D地球を読み込み中...

次回通過

高度履歴

Altitude vs Time

uPlot chart will show altitude changes over time

軌道要素

1 66208C 25069M 25301.08173611 -.00008577 00000+0 -28907-3 0 3016
2 66208 53.1599 38.3177 0001256 85.7136 267.4380 15.30202091 13
Epoch: Oct 28, 2025 • Age: 78 hours

現在のステータス

高度 477.5 km
速度 7.63 km/s
衛星直下点 36.23°N, 43.58°E
打ち上げ日 Oct 28, 2025
運用期間 3 days
タイプ internet

技術仕様

分類 Payload
質量 575.00 kg
乾燥質量 530.00 kg
総質量 575.00 kg
長さ 0.30 m
直径 4.10 m
スパン 29.00 m
形状 Box + pan
製造者 SPXS
バスタイプ Starlink V2MO
フェーズステータス In Orbit
所有者/国 SPXS/US

大規模コンステレーション

Loading constellations...